GW2746 Weather Reports


Display with metric or nautical units.
time (UTC)temp
F
wind
direction
speed
MPH
gust
MPH
rain 1hr
in
rain 24hr
in
rain mn
in
humidity
%
barometer
mb
20260901225127 96 208 3.0 8.0 0.00 0.00 0.00 49 1010.8
20260901224631 96 239 3.0 8.0 0.00 0.00 0.00 50 1010.8
20260901224149 96 238 3.0 8.0 0.00 0.00 0.00 49 1010.9
20260901223632 96 156 5.0 10.0 0.00 0.00 0.00 50 1010.9
20260901223131 96 221 5.0 11.0 0.00 0.00 0.00 49 1010.8
20260901222615 96 246 5.0 13.0 0.00 0.00 0.00 49 1010.8
20260901222136 96 193 6.0 13.0 0.00 0.00 0.00 49 1010.9
20260901221622 96 282 4.0 13.0 0.00 0.00 0.00 50 1010.9
20260901221118 96 244 7.0 16.0 0.00 0.00 0.00 49 1011.0
20260901220621 96 231 5.0 16.0 0.00 0.00 0.00 50 1011.1
20260901220119 96 256 4.0 11.0 0.00 0.00 0.00 52 1011.1
20260901215623 96 281 6.0 11.0 0.00 0.00 0.00 52 1011.1
20260901215123 96 215 5.0 14.0 0.00 0.00 0.00 52 1011.2
20260901214627 96 211 6.0 14.0 0.00 0.00 0.00 52 1011.1
20260901214128 96 254 5.0 14.0 0.00 0.00 0.00 52 1011.2
20260901213632 96 212 3.0 14.0 0.00 0.00 0.00 52 1011.2
20260901213134 96 202 7.0 10.0 0.00 0.00 0.00 51 1011.3
20260901212622 96 255 2.0 12.0 0.00 0.00 0.00 52 1011.3
20260901212144 96 241 4.0 12.0 0.00 0.00 0.00 51 1011.3
20260901211634 96 216 5.0 11.0 0.00 0.00 0.00 52 1011.4
20260901211133 96 293 4.0 12.0 0.00 0.00 0.00 52 1011.4
20260901210636 95 254 4.0 13.0 0.00 0.00 0.00 52 1011.4
20260901210136 96 172 6.0 13.0 0.00 0.00 0.00 51 1011.5
20260901205622 96 208 4.0 13.0 0.00 0.00 0.00 53 1011.5
20260901205141 95 241 4.0 13.0 0.00 0.00 0.00 52 1011.5
20260901204624 95 279 6.0 12.0 0.00 0.00 0.00 52 1011.7
20260901204122 95 167 6.0 12.0 0.00 0.00 0.00 52 1011.8
20260901203629 95 242 6.0 12.0 0.00 0.00 0.00 51 1011.8
20260901203129 95 183 6.0 11.0 0.00 0.00 0.00 52 1011.8
20260901202634 95 182 4.0 11.0 0.00 0.00 0.00 52 1012.0
20260901202114 95 167 7.0 9.0 0.00 0.00 0.00 52 1012.0
20260901201625 95 270 3.0 12.0 0.00 0.00 0.00 54 1012.1
20260901201122 94 83 4.0 12.0 0.00 0.00 0.00 53 1012.1
20260901200646 94 221 3.0 12.0 0.00 0.00 0.00 54 1012.2
20260901200126 94 210 4.0 12.0 0.00 0.00 0.00 53 1012.3
20260901195630 94 77 6.0 9.0 0.00 0.00 0.00 53 1012.3
20260901195146 94 240 4.0 12.0 0.00 0.00 0.00 53 1012.3
20260901194628 94 306 3.0 12.0 0.00 0.00 0.00 53 1012.3
20260901194129 94 239 3.0 11.0 0.00 0.00 0.00 54 1012.4
20260901193633 94 149 5.0 9.0 0.00 0.00 0.00 53 1012.4
20260901193131 94 176 4.0 9.0 0.00 0.00 0.00 52 1012.5
20260901192633 94 145 2.0 9.0 0.00 0.00 0.00 51 1012.4
20260901192133 94 233 4.0 9.0 0.00 0.00 0.00 53 1012.6
20260901191636 94 183 3.0 8.0 0.00 0.00 0.00 53 1012.6
20260901191117 93 170 3.0 8.0 0.00 0.00 0.00 52 1012.7
20260901190625 93 191 2.0 7.0 0.00 0.00 0.00 53 1012.8
20260901190127 93 237 2.0 9.0 0.00 0.00 0.00 53 1012.8
20260901185630 93 291 2.0 9.0 0.00 0.00 0.00 53 1012.8
20260901185127 92 283 4.0 8.0 0.00 0.00 0.00 52 1012.8
20260901184630 92 183 4.0 11.0 0.00 0.00 0.00 53 1012.8
20260901184131 92 127 4.0 11.0 0.00 0.00 0.00 54 1012.8
20260901183617 92 283 1.0 9.0 0.00 0.00 0.00 54 1012.9
20260901183155 92 167 4.0 9.0 0.00 0.00 0.00 53 1012.9
20260901182618 91 189 2.0 11.0 0.00 0.00 0.00 54 1012.9
20260901182117 91 249 5.0 11.0 0.00 0.00 0.00 54 1013.0
20260901181621 91 117 3.0 7.0 0.00 0.00 0.00 55 1013.0
20260901181119 91 175 3.0 6.0 0.00 0.00 0.00 54 1013.1
20260901180621 91 137 4.0 6.0 0.00 0.00 0.00 55 1013.1
20260901180119 91 206 4.0 6.0 0.00 0.00 0.00 55 1013.2
20260901175622 90 237 3.0 6.0 0.00 0.00 0.00 56 1013.3
20260901175120 90 184 1.0 8.0 0.00 0.00 0.00 55 1013.3
20260901174648 90 119 3.0 8.0 0.00 0.00 0.00 56 1013.4
20260901174122 89 204 2.0 7.0 0.00 0.00 0.00 56 1013.4
20260901173625 89 204 3.0 7.0 0.00 0.00 0.00 56 1013.4
20260901173128 89 291 3.0 8.0 0.00 0.00 0.00 57 1013.5
20260901172636 89 124 3.0 8.0 0.00 0.00 0.00 57 1013.6
20260901172117 89 144 5.0 7.0 0.00 0.00 0.00 57 1013.6
20260901171621 89 225 1.0 5.0 0.00 0.00 0.00 56 1013.7
20260901171119 89 241 3.0 8.0 0.00 0.00 0.00 55 1013.7
20260901170628 89 100 3.0 8.0 0.00 0.00 0.00 58 1013.6
20260901170128 89 190 2.0 6.0 0.00 0.00 0.00 57 1013.6
20260901165653 88 129 1.0 5.0 0.00 0.00 0.00 58 1013.6
20260901165132 88 222 4.0 6.0 0.00 0.00 0.00 56 1013.6
20260901164617 88 146 2.0 6.0 0.00 0.00 0.00 56 1013.7
20260901164158 88 238 3.0 6.0 0.00 0.00 0.00 56 1013.7
20260901163641 88 148 3.0 6.0 0.00 0.00 0.00 57 1013.7
20260901163118 88 241 2.0 7.0 0.00 0.00 0.00 57 1013.7
20260901162622 88 140 3.0 7.0 0.00 0.00 0.00 56 1013.8
20260901162120 87 184 2.0 7.0 0.00 0.00 0.00 58 1013.8
20260901161627 87 193 3.0 7.0 0.00 0.00 0.00 57 1013.7
20260901161126 87 216 2.0 5.0 0.00 0.00 0.00 57 1013.8
20260901160632 87 204 2.0 6.0 0.00 0.00 0.00 57 1013.8
20260901160132 86 229 1.0 6.0 0.00 0.00 0.00 58 1013.8
20260901155635 86 251 2.0 6.0 0.00 0.00 0.00 57 1013.8
20260901155153 86 194 2.0 6.0 0.00 0.00 0.00 58 1013.7
20260901154619 86 173 3.0 5.0 0.00 0.00 0.00 60 1013.7
20260901154138 85 175 2.0 5.0 0.00 0.00 0.00 59 1013.7
20260901153624 85 314 2.0 5.0 0.00 0.00 0.00 60 1013.7
20260901153124 85 272 1.0 5.0 0.00 0.00 0.00 60 1013.7
20260901152627 85 221 2.0 5.0 0.00 0.00 0.00 60 1013.7
20260901152124 85 271 3.0 4.0 0.00 0.00 0.00 60 1013.7
20260901151628 84 229 2.0 6.0 0.00 0.00 0.00 60 1013.7
20260901151126 84 198 3.0 6.0 0.00 0.00 0.00 61 1013.7
20260901150635 84 129 3.0 5.0 0.00 0.00 0.00 62 1013.7
20260901150118 83 194 2.0 6.0 0.00 0.00 0.00 65 1013.9
20260901145625 83 285 3.0 6.0 0.00 0.00 0.00 63 1013.9
20260901145123 83 294 1.0 5.0 0.00 0.00 0.00 65 1013.8
20260901144626 83 242 3.0 5.0 0.00 0.00 0.00 65 1013.9
20260901144123 83 223 3.0 5.0 0.00 0.00 0.00 64 1014.0
20260901143630 82 189 1.0 5.0 0.00 0.00 0.00 65 1014.0
20260901143127 82 224 1.0 7.0 0.00 0.00 0.00 65 1014.0
20260901142634 82 172 1.0 7.0 0.00 0.00 0.00 65 1014.0
20260901142115 82 135 3.0 5.0 0.00 0.00 0.00 65 1014.1
20260901141622 82 285 0.0 4.0 0.00 0.00 0.00 66 1014.2
20260901141120 82 248 2.0 3.0 0.00 0.00 0.00 66 1014.2
20260901140623 82 217 2.0 5.0 0.00 0.00 0.00 66 1014.2
20260901140122 82 281 2.0 5.0 0.00 0.00 0.00 66 1014.2
20260901135628 81 216 0.0 4.0 0.00 0.00 0.00 67 1014.1
20260901135125 81 187 1.0 5.0 0.00 0.00 0.00 69 1014.2
20260901134649 81 196 0.0 6.0 0.00 0.00 0.00 68 1014.2
20260901134146 80 183 3.0 6.0 0.00 0.00 0.00 68 1014.1
20260901133631 80 219 2.0 5.0 0.00 0.00 0.00 69 1014.1
20260901133124 79 131 1.0 4.0 0.00 0.00 0.00 71 1014.1
20260901132629 79 203 0.0 4.0 0.00 0.00 0.00 73 1014.2
20260901132130 79 161 0.0 4.0 0.00 0.00 0.00 73 1014.2
20260901131617 79 192 1.0 4.0 0.00 0.00 0.00 73 1014.2
20260901131132 79 192 0.0 4.0 0.00 0.00 0.00 73 1014.2
20260901130619 78 192 1.0 5.0 0.00 0.00 0.00 74 1014.1
20260901130116 78 192 0.0 5.0 0.00 0.00 0.00 74 1014.1
20260901125642 78 179 1.0 3.0 0.00 0.00 0.00 74 1014.1
20260901125118 78 212 1.0 3.0 0.00 0.00 0.00 74 1014.0
20260901124622 78 195 1.0 3.0 0.00 0.00 0.00 74 1013.8
20260901124120 78 226 0.0 4.0 0.00 0.00 0.00 74 1013.9
20260901123625 77 226 1.0 4.0 0.00 0.00 0.00 75 1013.8
20260901123127 77 174 0.0 4.0 0.00 0.00 0.00 75 1013.7
20260901122631 77 174 1.0 2.0 0.00 0.00 0.00 76 1013.6
20260901122129 77 174 1.0 2.0 0.00 0.00 0.00 76 1013.6
20260901121632 77 127 1.0 2.0 0.00 0.00 0.00 76 1013.5
20260901121132 77 187 0.0 0.0 0.00 0.00 0.00 76 1013.4
20260901120641 77 187 0.0 2.0 0.00 0.00 0.00 76 1013.3
20260901120127 77 187 0.0 2.0 0.00 0.00 0.00 76 1013.4
20260901115629 77 187 0.0 2.0 0.00 0.00 0.00 76 1013.3
20260901115147 77 187 0.0 0.0 0.00 0.00 0.00 77 1013.3
20260901114633 77 187 0.0 0.0 0.00 0.00 0.00 78 1013.4
20260901114131 77 187 0.0 1.0 0.00 0.00 0.00 78 1013.4
20260901113655 77 187 0.0 4.0 0.00 0.00 0.00 77 1013.4
20260901113132 77 187 1.0 4.0 0.00 0.00 0.00 77 1013.5
20260901112638 77 187 0.0 3.0 0.00 0.00 0.00 78 1013.5
20260901112137 77 187 0.0 3.0 0.00 0.00 0.00 78 1013.5
20260901111641 77 198 0.0 0.0 0.00 0.00 0.00 78 1013.5
20260901111119 77 198 0.0 0.0 0.00 0.00 0.00 79 1013.6
20260901110624 77 198 0.0 0.0 0.00 0.00 0.00 78 1013.6
20260901110124 78 198 0.0 0.0 0.00 0.00 0.00 79 1013.6
20260901105651 78 198 0.0 0.0 0.00 0.00 0.00 79 1013.6
20260901105127 78 198 0.0 0.0 0.00 0.00 0.00 79 1013.5
20260901104615 78 176 0.0 0.0 0.00 0.00 0.00 81 1013.4
20260901104136 78 176 0.0 2.0 0.00 0.00 0.00 81 1013.4
20260901103619 78 176 0.0 2.0 0.00 0.00 0.00 82 1013.5
20260901103120 77 176 0.0 2.0 0.00 0.00 0.00 82 1013.5
20260901102625 77 176 2.0 2.0 0.00 0.00 0.00 83 1013.5
20260901102125 77 40 1.0 2.0 0.00 0.00 0.00 84 1013.6
20260901101649 77 40 1.0 2.0 0.00 0.00 0.00 84 1013.6
20260901101127 77 40 0.0 1.0 0.00 0.00 0.00 85 1013.6
20260901100617 77 40 0.0 0.0 0.00 0.00 0.00 85 1013.7
20260901100118 77 40 0.0 1.0 0.00 0.00 0.00 85 1013.8
20260901095622 77 40 0.0 1.0 0.00 0.00 0.00 85 1013.8
20260901095120 77 40 0.0 1.0 0.00 0.00 0.00 85 1013.8
20260901094628 77 40 0.0 0.0 0.00 0.00 0.00 85 1013.8
20260901094128 77 40 0.0 0.0 0.00 0.00 0.00 85 1013.7
20260901093635 77 40 0.0 1.0 0.00 0.00 0.00 86 1013.8
20260901093133 77 40 0.0 2.0 0.00 0.00 0.00 86 1013.8
20260901092621 77 40 1.0 2.0 0.00 0.00 0.00 87 1013.8
20260901092120 77 40 0.0 1.0 0.00 0.00 0.00 88 1013.7
20260901091624 77 40 0.0 2.0 0.00 0.00 0.00 89 1013.7
20260901091122 76 40 0.0 2.0 0.00 0.00 0.00 89 1013.8
20260901090645 76 40 0.0 2.0 0.00 0.00 0.00 90 1013.8
20260901090122 76 40 0.0 2.0 0.00 0.00 0.00 90 1013.8
20260901085626 76 40 0.0 0.0 0.00 0.00 0.00 90 1013.8
20260901085117 76 40 0.0 1.0 0.00 0.00 0.00 90 1013.7
20260901084645 76 40 0.0 1.0 0.00 0.00 0.00 90 1013.7
20260901084143 76 40 0.0 2.0 0.00 0.00 0.00 90 1013.7
20260901083626 76 40 1.0 2.0 0.00 0.00 0.00 90 1013.7
20260901083123 76 40 0.0 1.0 0.00 0.00 0.00 90 1013.6
20260901082626 76 40 0.0 2.0 0.00 0.00 0.00 90 1013.6
20260901082125 76 40 0.0 2.0 0.00 0.00 0.00 90 1013.7
20260901081633 76 40 0.0 2.0 0.00 0.00 0.00 90 1013.7
20260901081116 76 40 0.0 2.0 0.00 0.00 0.00 90 1013.7
20260901080622 76 40 0.0 2.0 0.00 0.00 0.00 90 1013.7
20260901080122 77 40 0.0 2.0 0.00 0.00 0.00 90 1013.8
20260901075630 77 40 0.0 1.0 0.00 0.00 0.00 90 1013.8
20260901075127 77 40 0.0 3.0 0.00 0.00 0.00 90 1013.8
20260901074629 77 40 1.0 3.0 0.00 0.00 0.00 90 1013.8
20260901074127 77 40 0.0 3.0 0.00 0.00 0.00 90 1013.8
20260901073630 77 67 1.0 3.0 0.00 0.00 0.00 90 1013.8
20260901073129 77 50 0.0 2.0 0.00 0.00 0.00 90 1013.8
20260901072633 77 50 1.0 3.0 0.00 0.00 0.00 90 1013.9
20260901072115 77 50 1.0 3.0 0.00 0.00 0.00 90 1013.8
20260901071620 77 98 0.0 2.0 0.00 0.00 0.00 90 1013.9
20260901071139 77 98 1.0 4.0 0.00 0.00 0.00 89 1013.9
20260901070622 78 98 1.0 4.0 0.00 0.00 0.00 89 1014.0
20260901070117 78 82 1.0 3.0 0.00 0.00 0.00 89 1014.0
20260901065621 78 82 1.0 2.0 0.00 0.00 0.00 89 1014.0
20260901065120 78 82 1.0 3.0 0.00 0.00 0.00 89 1014.0
20260901064626 78 82 0.0 3.0 0.00 0.00 0.00 89 1013.9
20260901064124 78 82 1.0 2.0 0.00 0.00 0.00 88 1013.9
20260901063629 78 82 0.0 4.0 0.00 0.00 0.00 88 1014.0
20260901063127 78 108 1.0 4.0 0.00 0.00 0.00 88 1014.0
20260901062631 78 63 1.0 3.0 0.00 0.00 0.00 88 1014.1
20260901062128 78 88 1.0 2.0 0.00 0.00 0.00 88 1014.1
20260901061630 79 88 1.0 2.0 0.00 0.00 0.00 88 1014.1
20260901061128 79 88 0.0 1.0 0.00 0.00 0.00 88 1014.2
20260901060635 79 88 0.0 2.0 0.00 0.00 0.00 87 1014.2
20260901060133 79 88 0.0 2.0 0.00 0.00 0.00 87 1014.1
20260901055621 79 88 0.0 2.0 0.00 0.00 0.00 86 1014.1
20260901055118 79 88 0.0 2.0 0.00 0.00 0.00 86 1014.2
20260901054622 79 88 0.0 0.0 0.00 0.00 0.00 86 1014.2
20260901054119 79 88 0.0 1.0 0.00 0.00 0.00 86 1014.2
20260901053622 79 88 0.0 1.0 0.00 0.00 0.00 86 1014.2
20260901053119 79 88 1.0 2.0 0.00 0.00 0.00 86 1014.3
20260901052622 79 88 0.0 2.0 0.00 0.00 0.00 86 1014.3
20260901052120 79 88 1.0 3.0 0.00 0.00 0.00 86 1014.2
20260901051623 79 88 0.0 3.0 0.00 0.00 0.00 86 1014.2
20260901051121 79 55 0.0 1.0 0.00 0.00 0.00 86 1014.2
20260901050625 79 55 0.0 1.0 0.00 0.00 0.00 86 1014.1
20260901050124 79 55 0.0 0.0 0.00 0.00 0.00 86 1014.2
20260901045638 79 55 0.0 1.0 0.00 0.00 0.00 86 1014.2
20260901045117 80 55 0.0 1.0 0.00 0.00 0.00 86 1014.3
20260901044621 80 55 0.0 1.0 0.00 0.00 0.00 86 1014.3
20260901044118 80 55 0.0 1.0 0.00 0.00 0.00 85 1014.2
20260901043621 80 55 0.0 1.0 0.00 0.00 0.00 85 1014.2
20260901043138 80 55 0.0 1.0 0.00 0.00 0.00 85 1014.2
20260901042623 80 55 0.0 1.0 0.00 0.00 0.00 84 1014.1
20260901042125 80 55 0.0 0.0 0.00 0.00 0.00 84 1014.2
20260901041629 81 55 0.0 1.0 0.00 0.00 0.00 83 1014.2
20260901041127 81 55 0.0 1.0 0.00 0.00 0.00 83 1014.2
20260901040632 81 55 0.0 1.0 0.00 0.00 0.00 83 1014.2
20260901040132 81 55 0.0 0.0 0.00 0.00 0.00 83 1014.3
20260901035620 81 55 0.0 0.0 0.00 0.00 0.00 83 1014.1
20260901035118 81 55 0.0 0.0 0.00 0.00 0.00 82 1014.0
20260901034623 81 55 0.0 0.0 0.00 0.00 0.00 82 1014.0
20260901034145 81 55 0.0 0.0 0.00 0.00 0.00 82 1013.9
20260901033632 81 55 0.0 0.0 0.00 0.00 0.00 82 1013.9
20260901033134 81 55 0.0 0.0 0.00 0.00 0.00 81 1013.8
20260901032619 81 55 0.0 2.0 0.00 0.00 0.00 81 1013.8
20260901032117 81 55 0.0 2.0 0.00 0.00 0.00 81 1013.9
20260901031623 81 55 0.0 2.0 0.00 0.00 0.00 81 1013.8
20260901031120 81 55 1.0 2.0 0.00 0.00 0.00 81 1013.8
20260901030623 82 55 0.0 1.0 0.00 0.00 0.00 81 1013.9
20260901030125 82 55 1.0 2.0 0.00 0.00 0.00 81 1013.8
20260901025629 82 55 1.0 2.0 0.00 0.00 0.00 81 1013.8
20260901025124 82 55 0.0 2.0 0.00 0.00 0.00 81 1013.7
20260901024647 82 55 1.0 2.0 0.00 0.00 0.00 80 1013.6
20260901024124 82 55 1.0 2.0 0.00 0.00 0.00 80 1013.5
20260901023629 82 77 1.0 3.0 0.00 0.00 0.00 80 1013.5
20260901023128 82 77 1.0 3.0 0.00 0.00 0.00 80 1013.4
20260901022631 82 77 0.0 2.0 0.00 0.00 0.00 80 1013.5
20260901022151 83 77 0.0 2.0 0.00 0.00 0.00 80 1013.5
20260901021655 83 77 1.0 2.0 0.00 0.00 0.00 79 1013.4
20260901021153 83 77 0.0 3.0 0.00 0.00 0.00 79 1013.3
20260901020617 83 77 1.0 3.0 0.00 0.00 0.00 79 1013.3
20260901020121 83 67 1.0 3.0 0.00 0.00 0.00 78 1013.3
20260901015623 83 67 1.0 3.0 0.00 0.00 0.00 77 1013.2
20260901015120 83 196 1.0 2.0 0.00 0.00 0.00 77 1013.0
20260901014623 84 196 0.0 0.0 0.00 0.00 0.00 76 1013.0
20260901014120 84 196 0.0 0.0 0.00 0.00 0.00 75 1013.0
20260901013627 84 196 0.0 2.0 0.00 0.00 0.00 74 1013.0
20260901013126 84 196 0.0 2.0 0.00 0.00 0.00 73 1013.0
20260901012630 84 196 0.0 1.0 0.00 0.00 0.00 73 1012.9
20260901012129 85 196 0.0 0.0 0.00 0.00 0.00 73 1012.9
20260901011636 85 196 0.0 1.0 0.00 0.00 0.00 72 1012.9
20260901011132 85 196 0.0 1.0 0.00 0.00 0.00 72 1012.9
20260901010635 86 196 0.0 0.0 0.00 0.00 0.00 72 1013.0
20260901010134 86 196 0.0 0.0 0.00 0.00 0.00 70 1013.1
20260901005637 87 196 0.0 0.0 0.00 0.00 0.00 70 1013.1
20260901005135 87 196 0.0 0.0 0.00 0.00 0.00 70 1013.2
20260901004619 87 196 0.0 0.0 0.00 0.00 0.00 68 1013.1
20260901004118 87 196 0.0 0.0 0.00 0.00 0.00 69 1013.1
20260901003642 88 196 0.0 0.0 0.00 0.00 0.00 68 1013.2
20260901003118 88 196 0.0 0.0 0.00 0.00 0.00 68 1013.2
20260901002622 88 196 0.0 0.0 0.00 0.00 0.00 67 1013.3
20260901002121 88 196 0.0 1.0 0.00 0.00 0.00 67 1013.1
20260901001626 88 196 0.0 2.0 0.00 0.00 0.00 65 1013.1
20260901001147 89 196 1.0 2.0 0.00 0.00 0.00 65 1013.1
20260901000622 88 196 1.0 2.0 0.00 0.00 0.00 66 1013.1
20260901000121 88 196 1.0 3.0 0.00 0.00 0.00 66 1013.1
20260831235648 88 196 2.0 4.0 0.00 0.00 0.00 66 1013.1
20260831235126 88 185 0.0 4.0 0.00 0.00 0.00 67 1013.2
20260831234648 88 185 0.0 2.0 0.00 0.00 0.00 67 1013.1
20260831234124 88 185 0.0 2.0 0.00 0.00 0.00 67 1013.1
20260831233633 88 185 1.0 2.0 0.00 0.00 0.00 67 1013.1
20260831233132 88 185 1.0 2.0 0.00 0.00 0.00 66 1013.2
20260831232635 88 185 1.0 3.0 0.00 0.00 0.00 66 1013.2
20260831232133 88 185 1.0 3.0 0.00 0.00 0.00 66 1013.1
20260831231656 88 221 1.0 3.0 0.00 0.00 0.00 67 1013.1
20260831231133 88 239 0.0 2.0 0.00 0.00 0.00 66 1013.1
20260831230636 88 239 1.0 3.0 0.00 0.00 0.00 66 1013.1
20260831230135 89 239 0.0 3.0 0.00 0.00 0.00 66 1013.1
20260831225625 89 252 0.0 3.0 0.00 0.00 0.00 66 1013.1